MOLNIYA 2-17

Last updated on Sept. 25, 2019, 4:08 a.m. UTC

1 09829U 77010A   19266.68283757  .00084926 -51669-6  23254-3 0  9995
2 09829  61.3778  92.2281 7519763 275.6008  11.4057  2.04319293312278
UTC
Height (km)
Latitude
Longitude
Inclination
Orbital Period
UTC large
Height (km)
Speed (km/s)
/
Latitude / Longitude
Inclination (degrees)
Orbital Period (minutes)
Azimuth
Elevation
Range (km)
Doppler Factor
iOS Compass Heading
iOS Angle

Next 30 passes for location: Hong Kong

Rise time Rise Azimuth (degrees) Set time Set Azimuth (degrees) Duration Max altitude (degrees)

No matching passes for this satellites